RH
70 61 60 56 58 65 66 68 68 78 77 29 17 12 18 28 44 74 72 52 44 58 33 21 25 23 25 28 30 31 32 33 35 36 36 38 39 38 36 33 31 28 26 23
78 69 70 62 63 65 64 67 72 84 46 17 17 16 28 52 81 72 42 49 73 46 58 36 23 29 32 36 37 40 40 41 43 42 44 45 45 41 37 35 32 29 21 16
85 87 97 72 75 84 90 95 82 56 16 15 22 35 60 75 54 44 59 78 83 52 24 29 34 39 43 44 45 46 47 46 46 48 52 51 47 41 38 35 29 22 16 13
99 95 86 92 81 72 65 57 28 16 19 32 49 75 57 54 70 79 80 69 31 28 33 40 45 46 46 47 50 51 50 50 52 57 56 51 45 42 38 30 22 17 14 10
94 93 79 74 55 26 24 29 24 29 41 62 73 59 78 86 88 78 62 33 30 36 45 46 46 47 49 53 53 53 54 57 59 59 54 48 45 39 29 21 16 13 10 11
74 82 71 91 77 53 36 36 56 86 87 82 91 91 82 67 78 62 34 35 40 46 47 48 48 50 53 55 56 58 61 64 63 56 51 46 38 26 16 12 12 10 11 17
91 89 82 96 98 97 98 95 96 87 80 82 73 59 58 71 53 36 36 42 46 46 46 48 48 52 56 56 61 62 65 65 58 54 46 35 24 16 14 13 11 12 17 25
88 86 88 91 94 86 83 78 73 73 67 48 51 55 54 39 35 37 42 44 44 46 48 48 57 58 55 56 61 69 67 60 54 47 34 23 19 17 15 12 13 23 28 38
64 52 57 56 56 65 58 56 75 62 64 61 44 36 35 37 41 41 43 44 47 47 50 62 57 53 56 66 72 64 59 55 46 34 25 22 19 15 12 14 27 38 44 44
89 89 87 83 80 80 74 71 42 35 34 35 36 38 40 38 40 45 47 47 47 56 66 60 58 58 64 65 62 58 54 45 34 28 25 20 16 13 14 30 46 53 49 43
31 33 50 69 76 74 57 45 40 39 38 38 39 39 41 44 48 49 47 48 60 68 63 62 64 63 60 58 52 48 43 35 30 26 21 17 15 13 23 55 59 54 51 42
44 38 23 23 38 61 65 61 55 49 42 40 41 43 46 48 48 48 56 65 70 65 68 68 63 56 48 42 39 36 34 30 26 22 18 16 14 19 53 62 61 63 52 42
49 31 18 15 31 64 67 57 49 45 43 42 44 45 45 48 59 65 70 71 72 72 63 54 45 39 38 37 35 33 28 26 24 20 17 14 19 40 52 60 60 56 46 40
27 15 18 35 62 68 62 49 43 41 41 41 41 48 60 63 70 70 74 73 61 50 40 37 38 38 36 30 27 23 21 22 21 19 16 22 42 59 60 55 51 46 43 34
24 43 67 71 63 49 43 38 36 36 45 56 60 61 70 70 75 71 58 47 40 37 36 39 37 30 28 25 22 21 22 23 20 18 23 43 60 63 60 58 51 43 37 30
77 71 59 46 34 32 38 62 69 65 59 61 72 73 73 64 56 47 42 40 37 36 34 32 28 26 23 22 22 24 24 21 19 24 43 63 65 60 59 55 47 42 34 18
55 53 64 79 87 87 77 59 57 63 75 78 74 59 54 49 46 43 41 38 35 32 29 28 26 24 24 23 23 24 21 20 26 52 66 64 58 58 55 52 45 35 19 5
98 96 87 71 56 54 56 65 78 80 75 61 55 49 46 45 44 40 36 33 30 28 27 25 24 23 21 22 24 22 19 30 54 64 62 58 57 56 54 46 38 16 5 12
55 53 52 54 63 75 82 83 79 63 58 57 54 49 45 42 39 35 33 30 26 26 27 25 23 22 23 24 22 22 39 56 63 62 60 58 58 55 47 35 11 6 12 21
54 62 74 84 88 89 87 73 64 60 59 54 49 41 36 35 33 33 32 30 28 28 26 23 22 23 24 21 29 48 60 63 62 58 56 55 51 44 27 9 7 15 23 22
93 86 83 85 90 89 81 70 62 56 50 43 38 37 34 34 35 35 34 33 31 28 24 22 22 21 20 39 56 61 63 60 53 52 52 48 39 16 10 13 22 25 23 33
87 91 93 89 80 70 62 55 51 48 44 40 39 38 38 40 41 39 37 34 30 26 22 22 18 28 52 62 64 63 56 52 51 48 45 28 10 13 22 28 26 25 35 27
73 74 73 69 63 59 57 55 51 46 43 44 43 44 47 47 44 41 36 33 27 22 19 16 39 60 66 63 58 54 53 51 47 34 13 9 18 25 27 24 25 37 30 27
72 70 67 64 60 56 54 51 46 43 43 45 48 52 52 48 44 39 34 28 23 17 15 46 67 67 60 54 56 56 51 43 19 9 13 18 19 22 21 23 40 32 29 25
77 74 70 66 65 64 59 52 50 50 53 54 56 57 53 48 41 36 30 23 15 14 57 73 68 63 57 59 58 53 35 11 11 16 15 12 13 16 22 40 34 30 32 26
62 56 55 58 59 56 55 56 56 59 59 61 60 56 50 42 39 33 23 13 12 48 72 72 64 56 61 61 52 24 10 16 16 15 15 17 15 25 40 38 30 39 38 26
60 65 66 64 62 59 56 57 61 63 66 64 58 52 45 41 33 21 11 15 48 69 70 61 59 63 62 50 16 12 16 16 17 28 45 46 41 42 40 31 35 51 34 36
Wind_Speed
36 35 34 33 33 33 33 29 31 21 24 26 29 27 25 25 27 27 28 29 31 30 29 30 33 38 42 46 50 53 56 59 61 64 66 69 70 73 75 78 81 84 88 92
32 35 34 35 32 32 34 33 30 25 23 26 26 26 25 26 25 27 29 30 29 30 34 38 40 44 48 51 54 56 59 61 64 67 69 71 73 76 77 80 84 88 91 92
22 27 26 27 23 26 27 27 26 25 20 27 26 24 25 26 27 28 29 30 34 35 37 40 43 47 50 53 57 59 62 65 67 69 71 73 75 77 79 83 86 90 91 93
23 25 27 20 23 24 25 26 25 23 23 25 25 24 25 25 26 28 30 34 35 37 40 43 47 50 54 57 59 62 65 68 69 70 72 74 76 79 82 85 88 91 91 88
23 25 20 17 18 21 21 23 25 23 24 27 27 26 25 25 28 32 35 35 37 40 43 47 51 54 57 59 63 66 68 69 69 70 72 74 78 82 84 86 89 88 86 82
23 24 18 14 15 18 23 23 23 24 29 32 33 32 25 29 33 34 34 36 39 43 47 51 54 57 61 64 66 67 68 68 69 71 73 77 81 83 85 87 87 85 80 79
20 20 20 20 20 25 27 20 24 27 27 24 24 28 31 32 33 34 37 40 44 48 52 55 59 63 66 67 66 65 66 67 69 72 76 79 81 83 86 87 84 80 76 75
22 23 26 22 19 27 31 29 23 23 27 29 29 29 31 32 35 38 41 45 49 52 55 60 65 66 67 66 64 65 66 67 71 75 78 81 83 86 86 84 80 75 73 71
19 18 19 19 21 22 25 27 26 26 27 27 28 30 32 35 38 43 46 50 52 56 61 65 66 66 64 63 64 64 65 69 73 76 80 84 86 85 83 79 74 72 72 72
13 14 17 18 20 22 24 24 24 24 26 28 30 33 37 41 44 47 49 53 57 62 65 67 65 62 62 62 62 64 68 71 74 79 83 85 85 83 78 73 71 72 73 73
13 15 18 20 23 24 25 26 28 29 31 32 35 38 41 44 47 50 53 57 62 66 67 63 61 61 60 61 64 67 71 74 79 82 85 84 82 78 73 69 71 72 74 76
20 19 19 22 26 28 29 30 31 33 34 36 39 42 44 47 50 54 58 63 66 63 59 59 58 58 60 63 67 71 75 79 83 85 85 83 79 71 67 67 69 72 75 76
27 27 28 28 28 29 31 32 33 36 38 40 42 44 47 51 56 60 63 62 57 55 54 55 57 59 62 66 70 74 79 83 86 87 85 81 73 67 63 64 67 70 73 75
33 33 32 31 31 31 32 34 36 37 39 42 44 48 52 56 60 58 53 52 51 51 53 56 59 62 65 68 73 78 83 86 88 86 81 74 67 65 65 66 67 68 70 74
36 32 30 30 32 33 34 35 36 38 41 44 48 52 55 53 50 49 48 48 49 53 56 59 62 65 68 73 79 84 87 87 84 79 72 67 65 66 67 68 69 70 70 76
32 32 32 32 32 33 34 37 39 41 45 49 50 47 45 45 45 45 47 50 54 57 60 62 66 70 75 79 84 87 86 83 78 70 65 64 65 66 67 69 70 72 76 77
30 31 33 34 35 35 36 39 42 45 46 43 42 42 43 43 45 47 50 53 56 60 63 67 71 76 82 87 88 86 82 74 68 63 63 64 66 68 70 71 73 77 77 62
33 33 32 32 33 37 40 42 42 40 38 39 41 42 44 46 48 49 52 57 61 64 68 73 77 83 87 88 86 80 74 67 63 62 63 66 68 71 72 75 79 77 60 45
31 33 33 35 37 39 39 38 36 36 38 40 43 44 47 48 50 54 57 61 67 69 73 79 84 86 86 84 78 70 65 63 62 63 65 68 70 72 75 80 74 56 44 38
33 35 36 37 37 37 34 34 37 39 42 44 45 48 49 52 55 58 62 67 72 74 79 82 84 83 81 74 66 63 62 62 63 65 67 70 72 75 79 67 52 42 38 36
33 34 35 34 33 34 35 37 41 44 45 46 49 51 54 58 60 64 68 71 75 79 82 83 82 80 71 63 61 61 62 64 66 68 69 72 76 75 59 47 39 36 34 32
31 31 31 32 33 35 39 42 43 45 48 50 53 56 60 63 65 68 71 74 78 81 81 79 76 66 60 59 60 62 64 67 69 70 73 76 67 50 42 38 35 33 32 26
31 33 34 36 38 41 44 45 47 50 53 55 57 61 63 65 67 70 74 77 80 79 77 71 62 58 58 60 64 65 68 69 72 76 73 58 46 40 37 35 32 31 25 21
33 34 34 37 41 45 46 49 52 54 57 60 61 62 63 65 69 72 76 79 78 75 67 58 56 57 60 64 67 69 70 75 76 63 50 45 41 36 34 30 29 25 21 14
37 40 44 47 49 50 52 55 57 59 60 62 62 63 65 69 72 77 79 77 75 64 57 56 58 61 65 68 70 72 77 69 54 47 45 42 35 31 28 27 24 18 13 3
42 45 48 51 53 55 57 58 60 61 63 63 64 66 69 72 76 79 76 73 62 56 56 58 60 64 67 69 72 75 61 52 51 48 43 37 30 26 25 22 16 9 2 12
48 49 51 54 56 57 59 60 62 62 62 63 65 69 72 76 78 74 69 60 54 54 57 60 64 67 69 72 72 57 53 52 47 40 34 30 25 22 18 12 6 1 10 17
Wind_Direction
216 218 222 224 231 233 239 244 241 233 238 247 247 250 252 255 263 272 276 279 284 288 291 292 295 296 299 302 304 306 307 308 307 307 309 311 311 310 310 311 311 310 311 313
218 223 224 227 229 230 220 222 235 238 243 250 252 249 252 259 269 273 275 278 287 291 294 293 294 299 302 305 306 306 306 306 308 309 310 310 309 310 311 311 311 313 315 316
222 219 221 224 222 228 231 238 243 241 239 241 250 256 261 266 268 273 277 284 288 288 289 294 298 302 303 304 304 304 306 308 308 309 309 309 310 311 311 313 315 317 317 317
219 220 223 224 229 233 235 237 244 246 244 249 253 255 258 264 271 278 280 284 284 287 293 298 300 301 302 302 304 307 307 307 308 308 309 310 310 311 314 317 317 317 318 316
227 232 227 230 236 237 239 239 244 247 247 248 252 256 260 265 270 275 280 281 286 292 295 297 300 301 303 305 306 307 307 307 308 309 309 310 312 315 316 318 320 320 318 316
220 220 216 210 229 243 247 246 253 258 258 257 260 260 263 269 272 276 279 284 290 294 297 299 301 304 306 305 306 306 307 307 308 309 311 313 315 317 319 323 322 319 317 317
236 233 228 214 259 260 260 259 252 258 266 266 264 266 270 273 276 279 284 289 293 295 297 301 303 304 305 305 306 306 306 307 309 312 314 315 318 321 322 322 320 317 317 318
234 241 248 250 253 254 257 263 263 261 259 264 267 268 270 273 277 282 288 291 293 297 301 302 303 304 305 305 305 306 307 310 313 314 316 318 320 322 321 319 317 317 318 319
240 245 250 248 253 254 251 253 256 258 260 262 264 268 273 277 282 286 288 292 297 300 301 302 304 305 305 306 306 307 310 313 314 316 318 320 321 320 318 317 317 318 319 320
252 257 257 257 253 251 253 254 257 260 262 266 270 275 279 282 284 288 294 298 299 300 301 302 304 304 305 306 308 311 313 313 315 318 320 320 319 318 317 317 317 319 319 321
254 264 262 261 261 261 261 261 263 265 268 271 275 277 280 285 290 293 295 298 300 301 302 304 304 306 308 310 312 313 314 316 317 319 318 318 318 317 317 318 318 319 321 322
270 276 276 272 267 264 265 267 268 270 273 274 277 282 286 289 292 296 297 299 301 303 303 305 308 310 312 314 316 316 316 317 317 317 316 317 317 317 317 317 318 319 321 323
277 282 281 278 271 267 265 266 267 270 273 279 284 286 290 294 296 297 298 300 302 305 308 309 311 314 316 317 317 316 317 317 317 316 315 316 316 317 317 317 318 319 321 323
274 277 275 271 267 266 266 268 271 276 281 284 288 292 294 296 298 300 301 304 308 309 310 313 314 316 316 317 317 318 318 317 316 315 316 316 316 316 316 317 318 319 321 323
270 268 265 266 267 269 271 275 278 281 284 288 291 293 296 298 300 304 307 308 310 313 314 314 314 315 316 318 318 317 316 315 315 315 316 316 316 317 317 318 318 320 322 323
264 266 268 270 270 271 274 277 282 286 288 290 294 297 300 303 305 307 309 311 313 314 314 315 315 317 318 319 318 316 315 314 315 316 316 316 317 316 317 318 320 321 322 322
264 264 264 267 271 276 280 282 284 287 291 294 297 300 302 305 309 310 311 312 314 315 317 317 318 319 319 319 317 314 313 315 317 317 317 316 315 316 318 320 320 321 322 321
267 270 271 274 275 276 278 282 286 289 292 295 298 301 305 307 308 309 312 314 315 316 317 318 319 319 319 316 314 314 315 317 317 316 315 315 317 319 319 320 320 321 321 319
267 269 271 272 274 277 281 284 286 290 294 296 300 304 308 309 311 313 314 316 318 319 318 319 319 318 316 313 314 315 316 316 315 315 316 317 318 318 319 319 321 321 321 322
265 268 270 272 276 280 282 284 289 293 297 301 305 309 311 313 314 315 316 317 317 317 317 318 316 314 312 313 315 316 316 315 315 316 317 317 318 319 320 321 322 323 324 324
261 265 270 275 277 282 286 289 294 298 301 304 307 310 313 315 314 314 315 315 315 316 317 316 313 310 312 315 316 315 313 314 316 317 318 318 318 320 320 322 323 325 324 325
269 273 275 279 283 288 291 294 296 300 303 305 309 312 313 312 311 312 313 314 315 316 315 311 310 312 315 315 313 313 315 316 317 318 318 318 319 320 322 323 325 325 326 329
269 272 275 281 286 290 292 295 300 304 306 307 310 311 310 309 310 311 312 314 315 315 311 310 311 313 313 312 314 315 317 318 318 318 319 319 321 322 323 324 326 327 328 328
270 276 283 288 291 293 296 301 304 306 308 308 308 307 306 307 308 310 312 314 313 310 309 310 311 310 311 313 316 318 318 318 319 320 321 321 322 322 323 325 325 328 327 331
282 286 288 290 294 297 300 302 304 305 306 305 304 303 304 306 309 312 313 312 310 310 309 309 309 311 312 315 317 319 319 320 320 321 320 320 319 320 323 324 326 328 328 79
287 289 292 295 297 299 301 303 303 303 303 302 301 303 305 309 311 312 310 308 308 307 308 308 309 310 314 317 318 320 321 320 320 319 319 319 318 321 323 322 327 330 41 136
287 290 292 294 296 298 299 300 300 300 299 299 302 305 308 310 311 309 306 306 307 308 308 309 311 314 316 318 320 320 319 319 319 319 319 317 316 317 316 316 322 55 139 143